Regional Weather Roundup
Issued by NWS

Home | Current Version | Previous Version | Graphics & Text | Print | Product List | Glossary On
Versions: 1 2 3 4 5 6 7 8 9 10 11 12 13 14 15 16 17 18 19 20 21 22 23 24 25 26 27 28 29 30 31 32 33 34 35 36 37 38 39 40 41 42 43 44 45 46 47 48 49 50
000
ASUS45 KABQ 181910
RWRNM
NEW MEXICO REGIONAL WEATHER ROUNDUP
NATIONAL WEATHER SERVICE ALBUQUERQUE NM
1200 PM MST WED JAN 18 2017

NOTE: "FAIR" MEANS FEW OR NO CLOUDS BELOW 12,000 FEET AGL WITH NO
       SIGNIFICANT WEATHER OR OBSTRUCTIONS TO VISION.

      THIS PRODUCT IS RELEASED AS TWO VERSIONS.  ONE VERSION NEAR
      THE TOP OF THE HOUR CONTAINING PRELIMINARY DATA FROM ALBUQUERQUE
      AND OTHER STATIONS.  A FINAL VERSION WITH ADDITIONAL DATA IS
      ISSUED ABOUT 10 MINUTES AFTER THE HOUR.

NMZ501-503-504-510>518-182000-
NORTHWEST PLATEAU/NORTHCENTRAL MOUNTAINS

CITY           SKY/WX    TMP DP  RH WIND       PRES   REMARKS
FARMINGTON     FAIR      39  32  76 W7        30.09F WCI  34
LOS ALAMOS     CLOUDY    36  31  82 E3        30.05F
SANTA FE       CLOUDY    39  31  72 W8        30.04F WCI  33
TAOS           CLOUDY    30  19  64 N8        30.06F WCI  23
ANGEL FIRE     FAIR      28  27  96 W10G22    30.01F WCI  18

$$
NMZ402-403-502-505>509-182000-
WESTCENTRAL MOUNTAINS/SOUTHWEST MOUNTAINS

CITY           SKY/WX    TMP DP  RH WIND       PRES   REMARKS
GALLUP         CLOUDY    38  33  82 SW9       30.12F WCI  31
GRANTS         CLOUDY    42  28  58 W15G24    30.11F
SILVER CITY    PTSUNNY   47  35  61 W7        30.13F

$$
NMZ407-409-411-412-182000-
SOUTHERN DESERTS

CITY           SKY/WX    TMP DP  RH WIND       PRES   REMARKS
DEMING         FAIR      50  40  68 VRB7      30.13F
LAS CRUCES     PTSUNNY   44  42  94 E3        30.14F
HOLLOMAN AFB   CLOUDY    43  43 100 S9        30.16F
ALAMOGORDO     PTSUNNY   46  45  93 SW8       30.14F
T OR C         FAIR      42  39  89 S9        30.10F

$$
NMZ519>523-182000-
CENTRAL VALLEYS/CENTRAL HIGHLANDS

CITY           SKY/WX    TMP DP  RH WIND       PRES   REMARKS
ALBUQUERQUE    PTSUNNY   43  37  79 SW5       30.09F
DOUBLE EAGLE   PTSUNNY   43  34  70 SW5       30.09F
MORIARTY ARPT  FAIR      43  29  58 W20G25    30.05F
CLINES CORNERS PTSUNNY   37  28  70 NW17      30.02F WCI  27
BELEN          PTSUNNY   42  37  83 CALM      30.09F
SOCORRO        CLOUDY    40  37  88 S6        30.11F

$$
NMZ524>526-539-540-182000-
SOUTHCENTRAL MOUNTAINS

CITY           SKY/WX    TMP DP  RH WIND       PRES   REMARKS
RUIDOSO        CLOUDY    41  32  70 NW14      30.09F

$$
NMZ527>531-182000-
NORTHEAST HIGHLANDS/NORTHEAST PLAINS

CITY           SKY/WX    TMP DP  RH WIND       PRES   REMARKS
LAS VEGAS      FAIR      38  28  67 SE5       29.94F WCI  34
RATON          FAIR      34  27  75 E3        29.91F
CLAYTON        FAIR      51  34  52 S10       29.89F

$$
NMZ532>537-182000-
EASTCENTRAL PLAINS

CITY           SKY/WX    TMP DP  RH WIND       PRES   REMARKS
TUCUMCARI      FAIR      57  34  41 W18G30    29.93F
CANNON AFB     FAIR      50  49  96 W21G26    30.00F
CLOVIS AIRPORT FAIR      52  39  62 SW15      30.00F

$$
NMZ028-029-538-182000-
SOUTHEAST PLAINS

CITY           SKY/WX    TMP DP  RH WIND       PRES   REMARKS
ROSWELL        FAIR      54  41  61 S10       30.04F
ARTESIA        FAIR      54  48  82 SE7       30.06F
CARLSBAD       FAIR      56  41  57 S8        30.06F
HOBBS          MOSUNNY   54  41  62 S8        30.08F


$$




USA.gov is the U.S. government's official web portal to all federal, state and local government web resources and services.